Content
SEND FEEDBACK

Daily
Averages
Monthly
Summary
French Polynesia

FAAA, FRENCH POLYNESIA


Home > Oceania > French Polynesia
Elevation: 7 feet     Latitude: 17 33S     Longitude: 149 37W

WEATHER
 
SELECT A DAY
Number of Records: 217,781;   Date Range: 6/30/96 - 12/25/14
 
SHARE

PRINT THIS DATA

[ ← Previous Day ]
WEATHER ALMANAC - JULY 13, 2014
[ Next Day → ]
[ °C ]   °F
Weather ElementAverageHighLow
Temperature77.1 °F79 °F (8:00 pm)75.2 °F (12:00 am)
Dewpoint69.9 °F72 °F (11:00 am)68 °F (12:00 am)
Humidity77.4 %83 % (2:30 am)68 % (8:00 am)
Barometer29.97 in30.04 in (8:30 am)29.92 in (2:00 pm)
Wind Speed6.9 mph13.8 mph (4:30 pm)
Weather ElementAverage
Visibility7.2 mi
Wind DirectionSSE (146.4 °)

Weather ElementTotal
Precipitation---
Cooling Degree Days12.1 (Base 65)
Growing Degree Days27.1 (Base 50)
Averaged from 56 records on July 13, 2014
WEATHER CONDITIONS BREAKOUT
WIND DIRECTION BREAKOUT
WEATHER BY HOUR - JULY 13, 2014
[ °C ]   °F
Local TimeTemperatureDewpointHumidityBarometerVisibilityWind DirectionWind SpeedGust SpeedPrecipitationEventsConditions
12:00 AM77.0 °F69.8 °F78 %29.95 in6.2 miEast (90°)4.6 mphScattered Clouds
12:30 AM77.0 °F69.8 °F78 %29.95 in6.2 miEast (80°)6.9 mphScattered Clouds
1:00 AM77.0 °F69.8 °F78 %29.92 in6.2 miEast (80°)6.9 mphScattered Clouds
1:30 AM77.0 °F71.6 °F83 %29.92 in6.2 miEast (90°)5.8 mphMostly Cloudy
2:00 AM77.0 °F71.0 °F76 %29.93 in9.0 miEast (80°)6.9 mphMostly Cloudy
2:00 AM77.0 °F71.6 °F83 %29.92 in6.2 miEast (80°)6.9 mphMostly Cloudy
2:30 AM77.0 °F69.8 °F78 %29.92 in6.2 miENE (70°)6.9 mphMostly Cloudy
3:00 AM77.0 °F69.8 °F78 %29.92 in6.2 miEast (80°)6.9 mphMostly Cloudy
3:30 AM77.0 °F69.8 °F78 %29.92 in6.2 miEast (80°)6.9 mphMostly Cloudy
4:00 AM77.0 °F69.8 °F78 %29.92 in6.2 miENE (70°)6.9 mphScattered Clouds
4:30 AM77.0 °F69.8 °F78 %29.92 in6.2 miEast (80°)5.8 mphPartly Cloudy
5:00 AM76.0 °F69.0 °F75 %29.93 in28.0 miEast (90°)5.8 mphClear
5:00 AM77.0 °F69.8 °F78 %29.92 in6.2 miEast (90°)5.8 mphMostly Cloudy
5:30 AM75.2 °F69.8 °F83 %29.92 in6.2 miEast (90°)5.8 mphScattered Clouds
6:00 AM75.2 °F69.8 °F83 %29.92 in6.2 miEast (100°)4.6 mphScattered Clouds
6:30 AM75.2 °F69.8 °F83 %29.95 in6.2 miEast (100°)3.5 mphScattered Clouds
7:00 AM75.2 °F69.8 °F83 %29.95 in6.2 miSouth (190°)5.8 mphScattered Clouds
7:30 AM75.2 °F68.0 °F78 %29.98 in6.2 miCalmMostly Cloudy
8:00 AM76.0 °F68.0 °F70 %29.99 in11.0 miSSW (200°)5.8 mphMostly Cloudy
8:00 AM77.0 °F68.0 °F74 %29.98 in6.2 miSSW (200°)5.8 mphMostly Cloudy
8:30 AM77.0 °F68.0 °F74 %29.98 in6.2 miSouth (190°)6.9 mphMostly Cloudy
9:00 AM77.0 °F69.8 °F78 %29.98 in6.2 miSSW (200°)8.1 mphMostly Cloudy
9:30 AM78.8 °F69.8 °F74 %30.01 in6.2 miSSW (200°)8.1 mphMostly Cloudy
10:00 AM78.8 °F71.6 °F78 %30.01 in6.2 miSouth (190°)13.8 mphMostly Cloudy
10:30 AM77.0 °F69.8 °F78 %30.01 in6.2 miSSW (200°)13.8 mphMostly Cloudy
11:00 AM77.0 °F69.0 °F71 %30.01 in11.0 miSSW (210°)10.4 mphMostly Cloudy
11:00 AM77.0 °F69.8 °F78 %30.01 in6.2 miSSW (210°)10.4 mphMostly Cloudy
11:30 AM77.0 °F69.8 °F78 %29.98 in6.2 miSSW (200°)9.2 mphMostly Cloudy
12:00 PM77.0 °F69.8 °F78 %29.98 in6.2 miSSW (200°)8.1 mphMostly Cloudy
12:30 PM78.8 °F69.8 °F74 %29.98 in6.2 miSSW (210°)8.1 mphMostly Cloudy
1:00 PM78.8 °F69.8 °F74 %29.95 in6.2 miSSW (210°)8.1 mphMostly Cloudy
1:30 PM78.8 °F69.8 °F74 %29.95 in6.2 miSSW (210°)10.4 mphMostly Cloudy
2:00 PM79.0 °F72.0 °F72 %29.96 in12.0 miSSW (210°)11.5 mphMostly Cloudy
2:00 PM78.8 °F71.6 °F78 %29.95 in6.2 miSSW (210°)11.5 mphMostly Cloudy
2:30 PM78.8 °F71.6 °F78 %29.95 in6.2 miSouth (190°)13.8 mphMostly Cloudy
3:00 PM78.8 °F69.8 °F74 %29.95 in6.2 miSSW (200°)9.2 mphMostly Cloudy
3:30 PM78.8 °F69.8 °F74 %29.95 in6.2 miSSW (200°)10.4 mphMostly Cloudy
4:00 PM78.8 °F69.8 °F74 %29.95 in6.2 miSSW (210°)8.1 mphMostly Cloudy
4:30 PM78.8 °F71.6 °F78 %29.95 in6.2 miSSW (200°)8.1 mphMostly Cloudy
5:00 PM79.0 °F70.0 °F68 %29.98 in12.0 miSSW (200°)6.9 mphMostly Cloudy
5:00 PM78.8 °F69.8 °F74 %29.98 in6.2 miSSW (200°)6.9 mphMostly Cloudy
5:30 PM78.8 °F71.6 °F78 %29.98 in6.2 miSouth (190°)8.1 mphMostly Cloudy
6:00 PM77.0 °F71.6 °F83 %29.98 in6.2 miSSW (200°)6.9 mphMostly Cloudy
6:30 PM77.0 °F71.6 °F83 %29.98 in6.2 miSouth (190°)8.1 mphMostly Cloudy
7:00 PM77.0 °F69.8 °F78 %30.01 in6.2 miSouth (190°)4.6 mphMostly Cloudy
7:30 PM77.0 °F71.6 °F83 %30.01 in6.2 miSSW (210°)5.8 mphMostly Cloudy
8:00 PM76.0 °F70.0 °F77 %30.03 in12.0 miSouth (180°)4.6 mphMostly Cloudy
8:00 PM77.0 °F69.8 °F78 %30.01 in6.2 miSouth (180°)4.6 mphMostly Cloudy
8:30 PM77.0 °F69.8 °F78 %30.01 in6.2 miSouth (190°)5.8 mphMostly Cloudy
9:00 PM75.2 °F69.8 °F83 %30.01 in6.2 miSouth (180°)4.6 mphMostly Cloudy
9:30 PM75.2 °F68.0 °F78 %30.04 in6.2 miVariable2.3 mphMostly Cloudy
10:00 PM75.2 °F68.0 °F78 %30.04 in6.2 miCalmMostly Cloudy
10:30 PM75.2 °F68.0 °F78 %30.04 in6.2 miSouth (170°)3.5 mphMostly Cloudy
11:00 PM76.0 °F69.0 °F73 %30.03 in12.0 miNE (40°)3.5 mphMostly Cloudy
11:00 PM77.0 °F69.8 °F78 %30.01 in6.2 miNE (40°)3.5 mphMostly Cloudy
11:30 PM77.0 °F68.0 °F74 %30.01 in6.2 miNE (50°)4.6 mphMostly Cloudy
Hourly data recorded from NTAA, located miles away from Faaa, French Polynesia







STORIES FROM OUR PARTNERS